This demonstration page uses our WeatherBlox Daily Observations layout. Learn more.

Left ArrowRight Arrow

Hourly Observations for September 24, 2021

Temp ( °F °C ) Dew Point ( °F °C ) Humidity (%) Winds ( mph kmh ) Pressure ( in mb ) Visibility ( mi km ) Precip ( " mm )
12:53 am 00:53 Cloudy 55 12.8 31 -0.6 40 40 NE 6 9 30.22 1023 10 16 N/A
1:53 am 01:53 Cloudy 53 11.7 31 -0.6 43 43 ENE 3 6 30.22 1023 10 16 N/A
2:53 am 02:53 Cloudy 53 11.7 29 -1.7 40 40 NE 8 13 30.23 1024 10 16 N/A
3:53 am 03:53 Cloudy 51 10.6 28 -2.2 41 41 ENE 7 11 30.23 1024 10 16 N/A
4:53 am 04:53 Cloudy 49 9.4 28 -2.2 44 44 E 7 11 30.23 1024 10 16 N/A
5:53 am 05:53 Cloudy 49 9.4 28 -2.2 44 44 ENE 9 15 30.22 1023 10 16 N/A
6:53 am 06:53 Clear 45 7.2 28 -2.2 52 52 E 7 11 30.22 1023 10 16 N/A
7:53 am 07:53 Sunny 46 7.8 30 -1.1 54 54 E 6 9 30.22 1023 10 16 N/A
8:53 am 08:53 Sunny 51 10.6 29 -1.7 43 43 S 3 6 30.22 1023 10 16 N/A
9:53 am 09:53 Sunny 56 13.3 30 -1.1 37 37 W 7 11 30.21 1023 10 16 N/A
10:53 am 10:53 Sunny 61 16.1 27 -2.8 27 27 N N/A 30.19 1022 10 16 N/A
11:53 am 11:53 Sunny 65 18.3 23 -5 20 20 E 3 6 30.16 1022 10 16 N/A
12:53 pm 12:53 Sunny 67 19.4 24 -4.4 20 20 SE 6 9 30.14 1021 10 16 N/A
1:53 pm 13:53 Sunny 69 20.6 26 -3.3 20 20 N N/A 30.11 1020 10 16 N/A
2:53 pm 14:53 Sunny 72 22.2 31 -0.6 22 22 VRB 3 6 30.07 1018 10 16 N/A
3:53 pm 15:53 Sunny 74 23.3 34 1.1 23 23 WSW 10 17 30.04 1017 10 16 N/A
4:53 pm 16:53 Sunny 75 23.9 35 1.7 23 23 SSW 14 22 30.02 1017 10 16 N/A
5:53 pm 17:53 Sunny 74 23.3 34 1.1 23 23 W 9 15 30.00 1016 10 16 N/A
6:53 pm 18:53 Sunny 68 20 34 1.1 28 28 W 7 11 30.00 1016 10 16 N/A
7:53 pm 19:53 Clear 59 15 33 0.6 38 38 SSW 7 11 30.00 1016 10 16 N/A
8:53 pm 20:53 Clear 56 13.3 34 1.1 44 44 S 10 17 29.97 1015 10 16 N/A
9:53 pm 21:53 Clear 57 13.9 34 1.1 42 42 N N/A 29.95 1014 10 16 N/A
10:53 pm 22:53 Clear 52 11.1 34 1.1 50 50 NW 3 6 29.94 1014 10 16 N/A
11:53 pm 23:53 Clear 55 12.8 34 1.1 45 45 W 3 6 29.91 1013 10 16 N/A

Powered by AerisWeather